Flood From: 21-02-2018 18:00 Until: 22-02-2018 16:00 warning for: Flood Level: Yellow info button

Although rather usual in this region, locally or potentially dangerous phenomena are expected. (such as local winds, summer thunderstorms, rising streams or high waves) Be aware and pay attention to the latest weather updates, especially if you carry out activities exposed to weather or close to a stream or shoreline. 


Meteo18 Weather Cam more information Meteo18 Weather Cam


Thunder radar more information blitzortung!


Rain radar more information rain snow radar


Visit our other weather sites:

Template documentation
and downloads

And another site



Weather Underground History page Text

Daily Summary for July 25, 2017 Units:  English    Metric   Both
« Previous Day
Next Day »
Daily Weekly Monthly Yearly Custom
  High: Low: Average:
Temperature: TemperatureC °F 14.6 °F 17.3 °F
Dew Point: DewpointC °F 12.9 °F 13.7 °F
Humidity: Humidity % 59 % 80 %
Wind Speed: WindSpeedKMH mph 0.0 mph 5.2 mph
Wind Gust: WindSpeedGustKMH mph - -
Wind:- - WNW
Pressure: PressurehPa in 1015.5 in -
Precipitation: 0.3 in    
Historical Graphs
 
 
Tabular Data for July 25, 2017
Time Temperature Dew Point Pressure Wind Wind Speed Wind Gust Humidity Rainfall Rate (Hourly)
TemperatureC °F DewpointC °F PressurehPa in Calm     Humidity % HourlyPrecipMM in
00:02 15.6 °F 13.4 °F 1018.5 in WNW 9.7 mph 19.3 mph 87 % 0.0 in
00:12 15.4 °F 13.4 °F 1018.5 in WNW 3.2 mph 24.1 mph 88 % 0.0 in
00:17 15.5 °F 13.5 °F 1018.5 in WNW 9.7 mph 22.5 mph 88 % 0.0 in
00:22 15.5 °F 13.5 °F 1018.5 in WNW 8.0 mph 16.1 mph 88 % 0.0 in
00:32 15.6 °F 13.4 °F 1018.5 in NW 4.8 mph 17.7 mph 87 % 0.0 in
00:37 15.6 °F 13.4 °F 1018.5 in WNW 8.0 mph 17.7 mph 87 % 0.0 in
00:42 15.7 °F 13.4 °F 1018.5 in West 6.4 mph 17.7 mph 86 % 0.0 in
00:47 15.7 °F 13.4 °F 1018.5 in NNW 1.6 mph 17.7 mph 86 % 0.0 in
00:57 15.9 °F 13.2 °F 1018.5 in WNW 4.8 mph 32.2 mph 84 % 0.0 in
01:02 15.9 °F 13.2 °F 1018.5 in WNW 16.1 mph 32.2 mph 84 % 0.0 in
01:12 15.8 °F 13.5 °F 1018.5 in WNW 6.4 mph 32.2 mph 86 % 0.0 in
01:17 15.8 °F 13.5 °F 1018.5 in West 9.7 mph 17.7 mph 86 % 0.0 in
01:22 15.8 °F 13.5 °F 1018.2 in WNW 12.9 mph 17.7 mph 86 % 0.0 in
01:32 15.8 °F 13.5 °F 1018.2 in WNW 1.6 mph 12.9 mph 86 % 0.0 in
01:37 15.8 °F 13.5 °F 1018.2 in NW 3.2 mph 14.5 mph 86 % 0.0 in
01:42 15.7 °F 13.4 °F 1018.2 in NW 3.2 mph 14.5 mph 86 % 0.0 in
01:52 15.7 °F 13.4 °F 1018.2 in NW 1.6 mph 14.5 mph 86 % 0.0 in
01:57 15.7 °F 13.4 °F 1018.2 in WNW 8.0 mph 11.3 mph 86 % 0.0 in
02:02 15.7 °F 13.4 °F 1018.2 in NNW 3.2 mph 11.3 mph 86 % 0.0 in
02:12 15.7 °F 13.4 °F 1018.2 in WNW 3.2 mph 11.3 mph 86 % 0.0 in
02:17 15.7 °F 13.4 °F 1018.2 in WNW 1.6 mph 9.7 mph 86 % 0.0 in
02:22 15.7 °F 13.4 °F 1018.2 in WNW 3.2 mph 9.7 mph 86 % 0.0 in
02:32 15.7 °F 13.4 °F 1018.2 in NW 1.6 mph 11.3 mph 86 % 0.0 in
02:42 15.7 °F 13.2 °F 1018.2 in NNW 8.0 mph 14.5 mph 85 % 0.0 in
02:47 15.8 °F 13.3 °F 1018.2 in West 6.4 mph 16.1 mph 85 % 0.0 in
02:52 15.8 °F 13.3 °F 1017.8 in NNW 4.8 mph 16.1 mph 85 % 0.0 in
02:57 15.7 °F 13.2 °F 1017.8 in WNW 4.8 mph 17.7 mph 85 % 0.0 in
03:02 15.7 °F 13.2 °F 1017.8 in Calm   17.7 mph 85 % 0.0 in
03:12 15.8 °F 13.1 °F 1017.8 in West 6.4 mph 12.9 mph 84 % 0.0 in
03:17 15.8 °F 13.1 °F 1017.8 in NW 4.8 mph 14.5 mph 84 % 0.0 in
03:22 15.8 °F 13.1 °F 1017.8 in WNW 9.7 mph 14.5 mph 84 % 0.0 in
03:32 15.7 °F 13.2 °F 1017.5 in WNW 4.8 mph 14.5 mph 85 % 0.0 in
03:42 15.7 °F 13.4 °F 1017.5 in West 4.8 mph 14.5 mph 86 % 0.0 in
03:47 15.6 °F 13.3 °F 1017.5 in WNW 11.3 mph 16.1 mph 86 % 0.0 in
03:52 15.6 °F 13.3 °F 1017.5 in WNW 9.7 mph 16.1 mph 86 % 0.0 in
03:57 15.6 °F 13.4 °F 1017.5 in WNW 8.0 mph 16.1 mph 87 % 0.0 in
04:02 15.5 °F 13.3 °F 1017.5 in NW 4.8 mph 16.1 mph 87 % 0.0 in
04:12 15.4 °F 13.4 °F 1017.5 in WNW 12.9 mph 16.1 mph 88 % 0.0 in
04:17 15.3 °F 13.3 °F 1017.5 in NW 8.0 mph 16.1 mph 88 % 0.0 in
04:22 15.2 °F 13.4 °F 1017.5 in WNW 4.8 mph 16.1 mph 89 % 0.0 in
04:32 15.0 °F 13.4 °F 1017.5 in WNW 4.8 mph 14.5 mph 90 % 0.0 in
04:37 14.9 °F 13.4 °F 1017.5 in WNW 9.7 mph 16.1 mph 91 % 0.0 in
04:42 14.8 °F 13.3 °F 1017.2 in WNW 6.4 mph 16.1 mph 91 % 0.0 in
04:47 14.7 °F 13.4 °F 1017.2 in WSW 4.8 mph 14.5 mph 92 % 0.0 in
04:52 14.7 °F 13.4 °F 1017.2 in WNW 1.6 mph 14.5 mph 92 % 0.0 in
05:02 14.6 °F 13.5 °F 1017.2 in WNW 1.6 mph 9.7 mph 93 % 0.3 in
05:07 14.6 °F 13.5 °F 1017.2 in WNW 1.6 mph 8.0 mph 93 % 0.3 in
05:12 14.6 °F 13.5 °F 1017.2 in West 1.6 mph 8.0 mph 93 % 0.3 in
05:17 14.6 °F 13.5 °F 1017.2 in WSW 1.6 mph 4.8 mph 93 % 0.3 in
05:22 14.6 °F 13.5 °F 1017.2 in West 1.6 mph 4.8 mph 93 % 0.3 in
05:32 14.6 °F 13.5 °F 1017.2 in West 1.6 mph 4.8 mph 93 % 0.3 in
05:42 14.6 °F 13.5 °F 1017.2 in Calm   6.4 mph 93 % 0.3 in
05:52 14.6 °F 13.5 °F 1017.2 in West 1.6 mph 6.4 mph 93 % 0.3 in
06:02 14.6 °F 13.5 °F 1017.2 in Calm   6.4 mph 93 % 0.0 in
06:12 14.6 °F 13.6 °F 1017.2 in Calm   3.2 mph 94 % 0.0 in
06:17 14.6 °F 13.6 °F 1017.2 in Calm   6.4 mph 94 % 0.0 in
06:22 14.6 °F 13.6 °F 1017.2 in Calm   6.4 mph 94 % 0.0 in
06:27 14.7 °F 13.7 °F 1017.2 in SW 1.6 mph 3.2 mph 94 % 0.0 in
06:32 14.7 °F 13.7 °F 1017.2 in West 4.8 mph 4.8 mph 94 % 0.0 in
06:37 14.8 °F 13.7 °F 1017.2 in WNW 1.6 mph 3.2 mph 93 % 0.0 in
06:42 14.8 °F 13.7 °F 1017.2 in West 4.8 mph 8.0 mph 93 % 0.0 in
06:52 14.9 °F 13.8 °F 1017.2 in West 1.6 mph 8.0 mph 93 % 0.0 in
06:57 14.9 °F 13.8 °F 1016.8 in West 1.6 mph 11.3 mph 93 % 0.0 in
07:02 14.9 °F 13.8 °F 1016.8 in WNW 3.2 mph 11.3 mph 93 % 0.0 in
07:07 15.0 °F 13.9 °F 1017.2 in WSW 1.6 mph 11.3 mph 93 % 0.0 in
07:12 15.0 °F 13.9 °F 1016.8 in WNW 6.4 mph 6.4 mph 93 % 0.0 in
07:17 15.1 °F 14.0 °F 1016.8 in WNW 8.0 mph 8.0 mph 93 % 0.0 in
07:22 15.1 °F 14.0 °F 1016.8 in North 1.6 mph 9.7 mph 93 % 0.0 in
07:32 15.2 °F 14.1 °F 1016.8 in WNW 6.4 mph 9.7 mph 93 % 0.0 in
07:42 15.3 °F 14.2 °F 1016.8 in WNW 1.6 mph 11.3 mph 93 % 0.0 in
07:52 15.3 °F 14.0 °F 1016.8 in WNW 1.6 mph 8.0 mph 92 % 0.0 in
08:02 15.4 °F 14.1 °F 1016.8 in Calm   12.9 mph 92 % 0.0 in
08:12 15.5 °F 14.2 °F 1016.8 in NW 8.0 mph 12.9 mph 92 % 0.0 in
08:17 15.5 °F 14.2 °F 1017.2 in WNW 6.4 mph 12.9 mph 92 % 0.0 in
08:22 15.5 °F 14.2 °F 1017.2 in Calm   12.9 mph 92 % 0.0 in
08:27 15.5 °F 14.2 °F 1017.2 in WNW 4.8 mph 12.9 mph 92 % 0.0 in
08:32 15.6 °F 14.3 °F 1017.2 in NNW 8.0 mph 12.9 mph 92 % 0.0 in
08:37 15.6 °F 14.1 °F 1017.2 in West 3.2 mph 12.9 mph 91 % 0.0 in
08:42 15.6 °F 14.1 °F 1017.2 in WNW 3.2 mph 14.5 mph 91 % 0.0 in
08:47 15.6 °F 14.1 °F 1017.2 in West 3.2 mph 14.5 mph 91 % 0.0 in
08:57 16.2 °F 14.7 °F 1017.2 in WNW 8.0 mph 17.7 mph 91 % 0.0 in
09:02 16.3 °F 14.5 °F 1017.2 in West 8.0 mph 14.5 mph 89 % 0.0 in
09:12 16.3 °F 14.5 °F 1017.2 in WNW 4.8 mph 16.1 mph 89 % 0.0 in
09:17 16.3 °F 14.3 °F 1017.2 in WNW 6.4 mph 16.1 mph 88 % 0.0 in
09:22 16.3 °F 14.3 °F 1017.2 in NW 4.8 mph 16.1 mph 88 % 0.0 in
09:32 16.4 °F 14.4 °F 1017.2 in WNW 1.6 mph 19.3 mph 88 % 0.0 in
09:37 16.6 °F 14.4 °F 1017.2 in WNW 6.4 mph 19.3 mph 87 % 0.0 in
09:42 16.4 °F 14.2 °F 1017.2 in WNW 11.3 mph 16.1 mph 87 % 0.0 in
09:47 16.4 °F 14.2 °F 1017.2 in NW 3.2 mph 16.1 mph 87 % 0.0 in
09:52 16.6 °F 14.2 °F 1017.2 in NNW 8.0 mph 16.1 mph 86 % 0.0 in
10:02 16.7 °F 14.2 °F 1017.2 in WNW 9.7 mph 16.1 mph 85 % 0.0 in
10:12 16.8 °F 14.3 °F 1017.2 in West 1.6 mph 16.1 mph 85 % 0.0 in
10:17 16.9 °F 14.4 °F 1017.2 in NW 6.4 mph 16.1 mph 85 % 0.0 in
10:22 16.9 °F 14.0 °F 1017.2 in WNW 3.2 mph 12.9 mph 83 % 0.0 in
10:32 17.2 °F 13.9 °F 1017.2 in WNW 3.2 mph 17.7 mph 81 % 0.0 in
10:42 17.6 °F 13.9 °F 1017.2 in WNW 8.0 mph 19.3 mph 79 % 0.0 in
10:47 17.6 °F 13.9 °F 1017.2 in West 9.7 mph 19.3 mph 79 % 0.0 in
10:52 17.7 °F 13.8 °F 1017.2 in WNW 9.7 mph 20.9 mph 78 % 0.0 in
10:57 17.7 °F 13.8 °F 1017.2 in WNW 14.5 mph 20.9 mph 78 % 0.0 in
11:02 17.6 °F 13.5 °F 1017.2 in WNW 8.0 mph 17.7 mph 77 % 0.0 in
11:12 17.4 °F 13.7 °F 1017.2 in NW 16.1 mph 22.5 mph 79 % 0.0 in
11:17 17.6 °F 14.1 °F 1017.2 in WNW 3.2 mph 22.5 mph 80 % 0.0 in
11:22 17.8 °F 14.1 °F 1017.2 in NNE 3.2 mph 19.3 mph 79 % 0.0 in
11:27 18.0 °F 14.1 °F 1017.2 in WNW 8.0 mph 19.3 mph 78 % 0.0 in
11:32 18.2 °F 14.1 °F 1016.8 in WNW 3.2 mph 14.5 mph 77 % 0.0 in
11:42 17.8 °F 13.7 °F 1017.2 in NW 6.4 mph 20.9 mph 77 % 0.0 in
11:47 17.8 °F 13.7 °F 1017.2 in WNW 9.7 mph 20.9 mph 77 % 0.0 in
11:52 17.6 °F 13.7 °F 1017.2 in NNW 3.2 mph 20.9 mph 78 % 0.0 in
12:02 17.1 °F 13.8 °F 1017.2 in WNW 4.8 mph 16.1 mph 81 % 0.0 in
12:12 16.9 °F 14.2 °F 1017.2 in WNW 3.2 mph 16.1 mph 84 % 0.0 in
12:17 17.1 °F 14.4 °F 1017.2 in NNW 1.6 mph 16.1 mph 84 % 0.0 in
12:22 17.2 °F 14.5 °F 1017.2 in WNW 3.2 mph 9.7 mph 84 % 0.0 in
12:32 17.6 °F 14.3 °F 1017.2 in Calm   9.7 mph 81 % 0.0 in
12:37 17.7 °F 14.0 °F 1017.2 in NW 6.4 mph 12.9 mph 79 % 0.0 in
12:42 17.7 °F 14.2 °F 1017.2 in NW 9.7 mph 12.9 mph 80 % 0.0 in
12:47 17.6 °F 14.1 °F 1017.2 in NW 4.8 mph 12.9 mph 80 % 0.0 in
12:52 17.6 °F 14.3 °F 1017.2 in NW 4.8 mph 17.7 mph 81 % 0.0 in
13:02 17.6 °F 14.5 °F 1017.2 in North 11.3 mph 17.7 mph 82 % 0.0 in
13:07 17.6 °F 14.3 °F 1017.2 in NW 8.0 mph 11.3 mph 81 % 0.0 in
13:12 17.6 °F 14.3 °F 1017.2 in WNW 9.7 mph 11.3 mph 81 % 0.0 in
13:17 17.6 °F 14.5 °F 1017.2 in NW 3.2 mph 11.3 mph 82 % 0.0 in
13:22 17.7 °F 14.4 °F 1017.2 in WNW 6.4 mph 12.9 mph 81 % 0.0 in
13:32 17.8 °F 14.5 °F 1016.8 in NW 4.8 mph 9.7 mph 81 % 0.0 in
13:42 17.9 °F 14.4 °F 1017.2 in WNW 12.9 mph 16.1 mph 80 % 0.0 in
13:52 17.9 °F 14.2 °F 1016.8 in WNW 9.7 mph 14.5 mph 79 % 0.0 in
13:57 17.9 °F 14.2 °F 1016.8 in NW 4.8 mph 14.5 mph 79 % 0.0 in
14:02 18.0 °F 14.3 °F 1016.8 in NW 3.2 mph 17.7 mph 79 % 0.0 in
14:07 18.2 °F 14.1 °F 1016.8 in WNW 12.9 mph 17.7 mph 77 % 0.0 in
14:12 18.4 °F 14.3 °F 1016.8 in WNW 8.0 mph 17.7 mph 77 % 0.0 in
14:17 18.7 °F 14.4 °F 1016.8 in NNW 3.2 mph 17.7 mph 76 % 0.0 in
14:27 19.1 °F 13.7 °F 1016.5 in West 6.4 mph 17.7 mph 71 % 0.0 in
14:32 19.2 °F 13.8 °F 1016.5 in WNW 12.9 mph 17.7 mph 71 % 0.0 in
14:42 19.1 °F 14.1 °F 1016.8 in WNW 3.2 mph 17.7 mph 73 % 0.0 in
14:47 19.1 °F 13.9 °F 1016.5 in SW 6.4 mph 17.7 mph 72 % 0.0 in
14:52 19.4 °F 14.6 °F 1016.5 in WNW 4.8 mph 14.5 mph 74 % 0.0 in
15:02 19.9 °F 13.8 °F 1016.5 in WNW 6.4 mph 14.5 mph 68 % 0.0 in
15:07 19.8 °F 13.9 °F 1016.5 in Calm   12.9 mph 69 % 0.0 in
15:12 19.7 °F 13.9 °F 1016.5 in WNW 6.4 mph 12.9 mph 69 % 0.0 in
15:17 19.5 °F 13.4 °F 1016.5 in West 6.4 mph 12.9 mph 68 % 0.0 in
15:22 19.1 °F 13.9 °F 1016.5 in WNW 11.3 mph 12.9 mph 72 % 0.0 in
15:27 18.6 °F 13.9 °F 1016.5 in West 16.1 mph 20.9 mph 74 % 0.0 in
15:32 18.4 °F 14.3 °F 1016.5 in West 6.4 mph 20.9 mph 77 % 0.0 in
15:37 18.4 °F 14.3 °F 1016.5 in WNW 12.9 mph 20.9 mph 77 % 0.0 in
15:42 18.5 °F 14.4 °F 1016.5 in West 6.4 mph 20.9 mph 77 % 0.0 in
15:47 18.6 °F 14.5 °F 1016.5 in NW 8.0 mph 16.1 mph 77 % 0.0 in
15:52 18.8 °F 14.5 °F 1016.5 in SW 6.4 mph 16.1 mph 76 % 0.0 in
16:02 18.7 °F 14.4 °F 1016.5 in WNW 11.3 mph 12.9 mph 76 % 0.0 in
16:12 18.4 °F 14.3 °F 1016.5 in Calm   19.3 mph 77 % 0.0 in
16:17 18.6 °F 14.3 °F 1016.1 in West 3.2 mph 19.3 mph 76 % 0.0 in
16:22 18.9 °F 14.2 °F 1016.1 in WNW 8.0 mph 17.7 mph 74 % 0.0 in
16:32 19.6 °F 14.4 °F 1016.1 in WNW 14.5 mph 14.5 mph 72 % 0.0 in
16:37 20.0 °F 14.4 °F 1016.1 in SW 3.2 mph 17.7 mph 70 % 0.0 in
16:42 20.2 °F 14.3 °F 1016.1 in WNW 11.3 mph 19.3 mph 69 % 0.0 in
16:52 20.4 °F 13.1 °F 1016.1 in WNW 12.9 mph 22.5 mph 63 % 0.0 in
16:57 20.6 °F 13.6 °F 1016.1 in NNW 8.0 mph 24.1 mph 64 % 0.0 in
17:02 20.7 °F 13.4 °F 1015.8 in NNW 8.0 mph 24.1 mph 63 % 0.0 in
17:12 20.9 °F 13.3 °F 1015.8 in WNW 12.9 mph 24.1 mph 62 % 0.0 in
17:17 20.8 °F 13.3 °F 1015.8 in NW 6.4 mph 25.7 mph 62 % 0.0 in
17:22 20.7 °F 13.2 °F 1015.8 in North 4.8 mph 25.7 mph 62 % 0.0 in
17:32 20.5 °F 13.2 °F 1015.8 in WNW 9.7 mph 20.9 mph 63 % 0.0 in
17:37 20.6 °F 13.3 °F 1015.8 in West 11.3 mph 20.9 mph 63 % 0.0 in
17:42 20.7 °F 13.4 °F 1015.8 in West 8.0 mph 20.9 mph 63 % 0.0 in
17:47 21.1 °F 13.8 °F 1015.8 in SW 11.3 mph 22.5 mph 63 % 0.0 in
17:52 21.2 °F 13.9 °F 1015.8 in West 8.0 mph 24.1 mph 63 % 0.0 in
17:57 21.3 °F 13.7 °F 1015.8 in NNW 9.7 mph 24.1 mph 62 % 0.0 in
18:02 21.2 °F 13.6 °F 1015.8 in West 8.0 mph 24.1 mph 62 % 0.0 in
18:12 20.9 °F 13.3 °F 1016.1 in NNW 11.3 mph 19.3 mph 62 % 0.0 in
18:17 20.8 °F 13.3 °F 1015.8 in WNW 3.2 mph 19.3 mph 62 % 0.0 in
18:22 21.0 °F 13.4 °F 1015.8 in WNW 6.4 mph 19.3 mph 62 % 0.0 in
18:32 21.1 °F 13.0 °F 1015.8 in WNW 14.5 mph 25.7 mph 60 % 0.0 in
18:37 20.9 °F 13.1 °F 1015.8 in WNW 8.0 mph 25.7 mph 61 % 0.0 in
18:42 20.9 °F 13.1 °F 1015.8 in West 11.3 mph 25.7 mph 61 % 0.0 in
18:52 21.1 °F 13.0 °F 1015.8 in WNW 11.3 mph 20.9 mph 60 % 0.0 in
19:02 21.1 °F 13.0 °F 1015.8 in NW 4.8 mph 20.9 mph 60 % 0.0 in
19:12 20.9 °F 13.1 °F 1015.8 in NNW 6.4 mph 19.3 mph 61 % 0.0 in
19:17 21.0 °F 13.2 °F 1015.5 in WNW 1.6 mph 16.1 mph 61 % 0.0 in
19:22 21.1 °F 13.3 °F 1015.5 in WNW 4.8 mph 16.1 mph 61 % 0.0 in
19:27 21.1 °F 13.3 °F 1015.5 in Calm   12.9 mph 61 % 0.0 in
19:32 21.2 °F 12.9 °F 1015.5 in WNW 16.1 mph 16.1 mph 59 % 0.0 in
19:42 21.1 °F 13.0 °F 1015.5 in West 6.4 mph 20.9 mph 60 % 0.0 in
19:47 21.1 °F 13.3 °F 1015.5 in NW 6.4 mph 19.3 mph 61 % 0.0 in
19:52 20.9 °F 13.1 °F 1015.5 in WNW 4.8 mph 19.3 mph 61 % 0.0 in
20:02 20.6 °F 13.1 °F 1015.5 in WNW 6.4 mph 16.1 mph 62 % 0.0 in
20:12 20.7 °F 13.4 °F 1015.5 in WNW 8.0 mph 16.1 mph 63 % 0.0 in
20:17 20.5 °F 13.2 °F 1015.5 in West 6.4 mph 14.5 mph 63 % 0.0 in
20:22 20.3 °F 13.3 °F 1015.5 in NW 3.2 mph 12.9 mph 64 % 0.0 in
20:27 20.2 °F 13.4 °F 1015.5 in WNW 3.2 mph 12.9 mph 65 % 0.0 in
20:32 20.0 °F 13.5 °F 1015.5 in WNW 4.8 mph 12.9 mph 66 % 0.0 in
20:37 19.9 °F 13.6 °F 1015.5 in WNW 1.6 mph 8.0 mph 67 % 0.0 in
20:42 19.7 °F 13.6 °F 1015.5 in WNW 4.8 mph 8.0 mph 68 % 0.0 in
20:47 19.6 °F 13.8 °F 1015.5 in WNW 6.4 mph 8.0 mph 69 % 0.0 in
20:52 19.4 °F 13.8 °F 1015.8 in West 3.2 mph 8.0 mph 70 % 0.0 in
20:57 19.3 °F 13.7 °F 1015.8 in WSW 3.2 mph 6.4 mph 70 % 0.0 in
21:02 19.2 °F 14.0 °F 1015.8 in West 1.6 mph 6.4 mph 72 % 0.0 in
21:12 18.8 °F 14.1 °F 1015.8 in WSW 1.6 mph 6.4 mph 74 % 0.0 in
21:17 18.7 °F 14.2 °F 1015.8 in West 3.2 mph 8.0 mph 75 % 0.0 in
21:22 18.6 °F 14.3 °F 1015.8 in Calm   8.0 mph 76 % 0.0 in
21:32 18.3 °F 14.4 °F 1015.8 in Calm   4.8 mph 78 % 0.0 in
21:37 18.2 °F 14.3 °F 1015.8 in Calm   4.8 mph 78 % 0.0 in
21:42 18.1 °F 14.4 °F 1015.8 in Calm   4.8 mph 79 % 0.0 in
21:52 17.8 °F 14.3 °F 1015.8 in Calm   3.2 mph 80 % 0.0 in
21:57 17.7 °F 14.4 °F 1015.8 in Calm   1.6 mph 81 % 0.0 in
22:02 17.4 °F 14.3 °F 1015.8 in Calm   1.6 mph 82 % 0.0 in
22:12 17.2 °F 14.3 °F 1015.8 in Calm   1.6 mph 83 % 0.0 in
22:22 17.0 °F 14.5 °F 1015.8 in Calm   1.6 mph 85 % 0.0 in
22:32 16.8 °F 14.3 °F 1015.8 in Calm   1.6 mph 85 % 0.0 in
22:37 16.8 °F 14.3 °F 1015.8 in Calm   1.6 mph 85 % 0.0 in
22:42 16.8 °F 14.4 °F 1015.8 in Calm   1.6 mph 86 % 0.0 in
22:47 16.8 °F 14.4 °F 1015.8 in Calm   1.6 mph 86 % 0.0 in
22:52 16.8 °F 14.4 °F 1015.8 in Calm     86 % 0.0 in
22:57 16.8 °F 14.4 °F 1015.8 in Calm     86 % 0.0 in
23:02 16.8 °F 14.4 °F 1015.5 in Calm     86 % 0.0 in
23:07 16.5 °F 14.1 °F 1015.8 in Calm     86 % 0.0 in
23:17 16.0 °F 14.0 °F 1015.8 in Calm     88 % 0.0 in
23:22 15.9 °F 14.1 °F 1015.8 in Calm     89 % 0.0 in
23:27 16.1 °F 14.3 °F 1015.8 in Calm     89 % 0.0 in
23:32 16.1 °F 14.3 °F 1015.8 in Calm     89 % 0.0 in
23:37 15.9 °F 13.9 °F 1015.8 in Calm     88 % 0.0 in
23:42 15.7 °F 13.7 °F 1015.8 in Calm     88 % 0.0 in
23:47 15.6 °F 13.8 °F 1015.8 in Calm     89 % 0.0 in
23:52 15.6 °F 14.0 °F 1015.8 in Calm     90 % 0.0 in
23:57 15.6 °F 14.0 °F 1015.5 in Calm   1.6 mph 90 % 0.0 in
Meteo18
Compliments of Weather Underground - 4 mb

Script developed by  Jim McMurry - jmcmurry@mwt.net Adapted for the template by  Wim van der Kuil - Leuven-Template.eu

You find our weather info also at:

European Weather Network

Weather Underground

Equipment we use:

Weather-station
Davis Vue

Weather-program
Meteobridge

Weather-server
Raspberry PI 2 B+

Provider
1 and 1

Davis Vue

Meteobridge

Raspberry PI 2 B+

1 and 1